This is the latest recevied weather packets stored in our database for station/object KB4MOX. If no packets are shown the sender has not sent any weather packets the latest 10 day(s).
| Time | Temp. | Humidity | Pressure | Rain* | Wind** | Luminosity | Snow |
|---|---|---|---|---|---|---|---|
| 1777549804 | 18.33° C | 95% | 1010.9 hPa | 0 mm | - | 53 W/m² | - |
| 1777549500 | 17.78° C | 95% | 1011.1 hPa | 0 mm | - | 20 W/m² | - |
| 1777549196 | 17.78° C | 95% | 1011 hPa | 0 mm | - | 11 W/m² | - |
| 1777548893 | 18.33° C | 95% | 1011 hPa | 0 mm | - | 12 W/m² | - |
| 1777548590 | 18.33° C | 95% | 1010.9 hPa | 0 mm | - | 10 W/m² | - |
| 1777548286 | 18.33° C | 94% | 1010.8 hPa | 0 mm | - | 8 W/m² | - |
| 1777547984 | 18.33° C | 94% | 1010.9 hPa | 0 mm | - | 8 W/m² | - |
| 1777547679 | 18.33° C | 94% | 1010.6 hPa | 0 mm | - | 10 W/m² | - |
| 1777547376 | 18.33° C | 93% | 1010.4 hPa | 0 mm | - | 6 W/m² | - |
| 1777547074 | 18.33° C | 92% | 1010 hPa | 3.05 mm | - | 2 W/m² | - |
| 1777546771 | 18.89° C | 91% | 1010.1 hPa | 7.87 mm | - | 2 W/m² | - |
| 1777546468 | 18.89° C | 90% | 1010.3 hPa | 4.83 mm | - | 1 W/m² | - |
| 1777546165 | 18.89° C | 90% | 1010.3 hPa | 0 mm | - | 0 W/m² | - |
| 1777545861 | 18.89° C | 89% | 1009.9 hPa | 0 mm | - | 0 W/m² | - |
| 1777545558 | 18.89° C | 89% | 1009.6 hPa | 0 mm | - | 0 W/m² | - |
| 1777545254 | 18.89° C | 90% | 1009.6 hPa | 0 mm | - | 0 W/m² | - |
| 1777544952 | 18.89° C | 91% | 1009.4 hPa | 0 mm | - | 0 W/m² | - |
| 1777544649 | 18.89° C | 93% | 1009.4 hPa | 0 mm | - | 0 W/m² | - |
| 1777544344 | 18.89° C | 94% | 1009.1 hPa | 0 mm | - | 0 W/m² | - |
| 1777544041 | 18.89° C | 94% | 1009 hPa | 0 mm | - | 0 W/m² | - |
| 1777543739 | 18.89° C | 94% | 1009 hPa | 0 mm | - | 0 W/m² | - |
| 1777543435 | 18.89° C | 94% | 1009.3 hPa | 0 mm | - | 0 W/m² | - |
| 1777543130 | 18.89° C | 94% | 1009.3 hPa | 0 mm | - | 0 W/m² | - |
| 1777542827 | 18.89° C | 94% | 1009.6 hPa | 0 mm | - | 0 W/m² | - |
| 1777542523 | 18.89° C | 94% | 1009.6 hPa | 0 mm | - | 0 W/m² | - |
* Rain latest hour (hover to see other rain measurements)
** Current wind speed in m/s (hover to see current wind gust speed)